Home   Weather   Friesoythe   Past weeks

Flag for Germany Past Weather in Friesoythe, Lower Saxony, Germany — Yesterday and Last 2 Weeks

Now
61 °F

Cool.


Feels Like: 61 °F
Forecast: 55 / 65 °F
Wind: 3 mph from North

Location: Meppen-Mil

Current Time: Jul 23, 2017 at 7:10:37 am

Latest Report: Jul 23, 2017 at 6:20 am


Visibility: 4 mi

Pressure: 29.83 "Hg

Humidity: 94%

Dew Point: 59 °F

Location of FriesoytheLocation

Past Weather in Friesoythe — Graph

°F

Friesoythe Temperature Yesterday

Maximum temperature yesterday: 79 °F (at 4:20 pm)
Minimum temperature yesterday: 61 °F (at 12:20 am)
Average temperature yesterday: 68 °F

High & Low Weather Summary for the Past Weeks

 TemperatureHumidityPressure
High90 °F (Jul 19, 5:20 pm)100% (Jul 9, 6:20 am)30.21 "Hg (Jul 9, 6:20 am)
Low48 °F (Jul 9, 5:20 am)41% (Jul 19, 5:20 pm)29.71 "Hg (Jul 12, 11:20 am)
Average64 °F76%29.97 "Hg
* Reported Jul 8 5:20 am — Jul 23 5:20 am, Friesoythe. Weather by CustomWeather, © 2017

Note: Actual official high and low records may vary slightly from our data, if they occured in-between our weather recording intervals... More about our weather records

Advertising

Friesoythe Weather History for the Previous 24 Hours

Scroll right to see more
 ConditionsComfort  
Time TempWeatherWind HumidityBarometerVisibility
5:20 am
Sun, Jul 23
61 °FCool.3 mph94%29.83 "Hg4 mi
4:20 am61 °FCool.2 mph94%29.83 "Hg2 mi
3:20 am61 °FCool.1 mph94%29.83 "Hg2 mi
2:20 am63 °FMild.2 mph88%29.83 "Hg4 mi
1:20 am63 °FMild.5 mph94%29.86 "Hg5 mi
12:20 am61 °FCool.1 mph94%29.86 "Hg5 mi
11:20 pm
Sat, Jul 22
61 °FCool.1 mph94%29.86 "Hg2 mi
10:20 pm63 °FMild.2 mph94%29.86 "Hg5 mi
9:20 pm64 °FMild.5 mph83%29.86 "Hg5 mi
8:20 pm77 °FWarm.No wind69%29.83 "Hg5 mi
7:20 pm79 °FWarm.2 mph54%29.83 "Hg4 mi
6:20 pm77 °FWarm.2 mph54%29.86 "Hg6 mi
5:20 pm79 °FWarm.3 mph54%29.86 "Hg5 mi
4:20 pm79 °FWarm.2 mph54%29.86 "Hg4 mi
3:20 pm77 °FWarm.3 mph57%29.89 "Hg6 mi
2:20 pm75 °FMild.3 mph61%29.89 "Hg6 mi
1:20 pm75 °FMild.5 mph61%29.89 "HgN/A
12:20 pm73 °FMild.7 mph61%29.89 "HgN/A
11:20 am72 °FMild.5 mph69%29.89 "HgN/A
10:20 am66 °FMild.2 mph88%29.89 "Hg6 mi
9:20 am63 °FMild.2 mph94%29.89 "Hg4 mi
8:20 am61 °FCool.1 mph94%29.89 "Hg4 mi
7:20 am61 °FCool.1 mph88%29.89 "Hg4 mi
Weather by CustomWeather, © 2017

See weather overviewHow to use our weather pages